Weather History for Torrington, WY

Change the Weather History Date:

Saturday, November 17, 2012

  Actual Average Record
Temperature  
Mean Temperature 49 °F 35 °F  
Max Temperature 62 °F 49 °F 76 °F (1999)
Min Temperature 35 °F 21 °F 6 °F (2000)
Degree Days  
Heating Degree Days 16 30  
Month to date heating degree days 408 445  
Since 1 July heating degree days 1034 1155  
Cooling Degree Days 0 0  
Month to date cooling degree days 0 0  
Year to date cooling degree days 1021 678  
Moisture  
Dew Point 32 °F    
Average Humidity 51    
Maximum Humidity 70    
Minimum Humidity 31    
Precipitation  
Precipitation 0.00 in 0.01 in 0.02 in (2004)
Month to date precipitation 0.05 0.30  
Year to date precipitation 6.96 13.70  
Sea Level Pressure  
Sea Level Pressure 30.01 in    
Wind  
Wind Speed 7 mph (WSW)    
Max Wind Speed 18 mph    
Max Gust Speed 25 mph    
Visibility 10 miles    
Events      
T = Trace of Precipitation, MM = Missing Value Source: NWS Daily Summary

Daily Weather History Graph

Daily Weather History Graph

Search for Another Location

Airport:

Trip Planner

Search our weather history database for the weather conditions in past years. The results will help you decide how hot, cold, wet, or windy it might be!

Date:

Astronomy

Nov. 17, 2012 Rise Set
Actual Time 6:49 AM MST 4:33 PM MST
Civil Twilight 6:19 AM MST 5:03 PM MST
Nautical Twilight 5:45 AM MST 5:37 PM MST
Astronomical Twilight 5:12 AM MST 6:10 PM MST
Moon 10:36 AM MST (11/17) 8:46 PM MST (11/17)
Length of Visible Light 10h 43m
Length of Day
9h 43m
Waxing Crescent, 21% of the Moon is Illuminated
Nov 17
Waxing Crescent
Nov 20
First Quarter
Nov 28
Full
Dec 6
Last Quarter
Dec 13
New

Hourly Weather History & Observations

Time (MST) Temp. Windchill Dew Point Humidity Pressure Visibility Wind Dir Wind Speed Gust Speed Precip Events Conditions
12:53 AM 39.0 °F - 28.9 °F 67% 29.98 in 10.0 mi Calm Calm - N/A   Clear
1:53 AM 46.9 °F - 27.0 °F 46% 29.96 in 10.0 mi NW 5.8 mph - N/A   Partly Cloudy
2:53 AM 41.0 °F 37.1 °F 28.0 °F 60% 29.98 in 10.0 mi SSE 5.8 mph - N/A   Mostly Cloudy
3:53 AM 37.9 °F - 27.0 °F 65% 30.01 in 10.0 mi Calm Calm - N/A   Clear
4:53 AM 41.0 °F 39.0 °F 28.0 °F 60% 30.02 in 10.0 mi SW 3.5 mph - N/A   Clear
5:53 AM 39.0 °F 33.4 °F 28.9 °F 67% 30.06 in 10.0 mi WSW 8.1 mph - N/A   Clear
6:53 AM 42.1 °F 36.6 °F 30.0 °F 62% 30.06 in 10.0 mi NW 9.2 mph - N/A   Clear
7:53 AM 43.0 °F 39.5 °F 30.0 °F 60% 30.09 in 10.0 mi West 5.8 mph - N/A   Clear
8:53 AM 50.0 °F - 33.1 °F 52% 30.07 in 10.0 mi WSW 5.8 mph - N/A   Clear
9:53 AM 54.0 °F - 33.1 °F 45% 30.07 in 10.0 mi WSW 11.5 mph - N/A   Clear
10:53 AM 59.0 °F - 28.9 °F 32% 30.04 in 10.0 mi West 12.7 mph - N/A   Clear
11:53 AM 60.1 °F - 30.0 °F 32% 30.01 in 10.0 mi West 13.8 mph - N/A   Clear
12:53 PM 61.0 °F - 32.0 °F 34% 29.99 in 10.0 mi WSW 16.1 mph 20.7 mph N/A   Scattered Clouds
1:53 PM 62.1 °F - 32.0 °F 32% 29.96 in 10.0 mi WNW 11.5 mph 18.4 mph N/A   Scattered Clouds
2:53 PM 57.9 °F - 33.1 °F 39% 29.99 in 10.0 mi WNW 13.8 mph - N/A   Scattered Clouds
3:53 PM 57.0 °F - 35.1 °F 44% 30.01 in 10.0 mi West 10.4 mph - N/A   Scattered Clouds
4:53 PM 53.1 °F - 35.1 °F 50% 30.01 in 10.0 mi WNW 5.8 mph - N/A   Partly Cloudy
5:53 PM 48.9 °F - 34.0 °F 56% 30.03 in 10.0 mi NW 3.5 mph - N/A   Mostly Cloudy
6:53 PM 48.0 °F - 35.1 °F 61% 30.02 in 10.0 mi Calm Calm - N/A   Partly Cloudy
7:53 PM 44.1 °F 41.5 °F 34.0 °F 68% 30.03 in 10.0 mi WSW 4.6 mph - N/A   Clear
8:53 PM 42.1 °F 37.7 °F 33.1 °F 70% 30.02 in 10.0 mi SE 6.9 mph - N/A   Overcast
9:53 PM 44.1 °F 40.8 °F 34.0 °F 68% 29.98 in 10.0 mi ESE 5.8 mph - N/A   Overcast
10:53 PM 42.1 °F 37.7 °F 34.0 °F 73% 29.97 in 10.0 mi ESE 6.9 mph - N/A   Overcast
11:53 PM 41.0 °F 35.8 °F 34.0 °F 76% 29.96 in 10.0 mi East 8.1 mph - N/A   Overcast